Weather History for Indianapolis, IN

Change the Weather History Date:

Sunday, April 13, 2014

  Actual Average Record
Temperature  
Mean Temperature 69 °F 52 °F  
Max Temperature 75 °F 63 °F 86 °F (1941)
Min Temperature 63 °F 42 °F 18 °F (1950)
Degree Days  
Heating Degree Days 0 13  
Month to date heating degree days 166 195  
Since 1 July heating degree days 5862 5045  
Cooling Degree Days 4 0  
Month to date cooling degree days 4 0  
Year to date cooling degree days 4 2  
Growing Degree Days 18 (Base 50)    
Moisture  
Dew Point 53 °F    
Average Humidity 59    
Maximum Humidity 72    
Minimum Humidity 46    
Precipitation  
Precipitation 0.00 in 0.12 in 1.13 in (1911)
Month to date precipitation 3.71 1.59  
Year to date precipitation 10.88 10.13  
Snow  
Snow 0.00 in 0.10 in 0.90 in (1885)
Month to date snowfall T 0.2  
Since 1 July snowfall 55.4 25.9  
Snow Depth 0.00 in    
Sea Level Pressure  
Sea Level Pressure 29.77 in    
Wind  
Wind Speed 18 mph (SSW)    
Max Wind Speed 30 mph    
Max Gust Speed 37 mph    
Visibility 10 miles    
Events      
T = Trace of Precipitation, MM = Missing Value Source: NWS Daily Summary

Daily Weather History Graph

Daily Weather History Graph

Search for Another Location

Airport:

Trip Planner

Search our weather history database for the weather conditions in past years. The results will help you decide how hot, cold, wet, or windy it might be!

Date:

Astronomy

Apr. 13, 2014 Rise Set
Actual Time 7:10 AM EDT 8:21 PM EDT
Civil Twilight 6:42 AM EDT 8:49 PM EDT
Nautical Twilight 6:09 AM EDT 9:22 PM EDT
Astronomical Twilight 5:35 AM EDT 9:57 PM EDT
Moon 6:58 PM EDT (4/13) 6:08 AM EDT (4/13)
Length of Visible Light 14h 06m
Length of Day
13h 10m
Waxing Gibbous, 97% of the Moon is Illuminated
Apr 13
Waxing Gibbous
Apr 15
Full
Apr 22
Last Quarter
Apr 29
New
May 6
First Quarter

Hourly Weather History & Observations

Time (EDT) Temp. Dew Point Humidity Pressure Visibility Wind Dir Wind Speed Gust Speed Precip Events Conditions
12:54 AM 63.0 °F 51.1 °F 65% 29.80 in 10.0 mi SSE 9.2 mph - N/A   Mostly Cloudy
1:54 AM 63.0 °F 51.1 °F 65% 29.80 in 10.0 mi South 11.5 mph - N/A   Mostly Cloudy
2:54 AM 64.0 °F 50.0 °F 60% 29.79 in 10.0 mi South 12.7 mph - N/A   Mostly Cloudy
3:54 AM 66.0 °F 51.1 °F 59% 29.80 in 10.0 mi SW 19.6 mph 27.6 mph N/A   Overcast
4:54 AM 66.0 °F 52.0 °F 60% 29.84 in 10.0 mi SW 18.4 mph - N/A   Overcast
5:54 AM 64.0 °F 53.1 °F 67% 29.82 in 10.0 mi SSW 16.1 mph - N/A   Scattered Clouds
6:54 AM 63.0 °F 53.1 °F 70% 29.83 in 10.0 mi SSW 13.8 mph - N/A   Mostly Cloudy
7:54 AM 63.0 °F 54.0 °F 72% 29.83 in 10.0 mi SSW 18.4 mph - N/A   Overcast
8:54 AM 64.9 °F 54.0 °F 68% 29.84 in 10.0 mi SSW 18.4 mph - N/A   Overcast
9:54 AM 69.1 °F 55.0 °F 61% 29.83 in 10.0 mi SSW 21.9 mph 28.8 mph N/A   Overcast
10:54 AM 72.0 °F 55.0 °F 55% 29.83 in 10.0 mi SSW 21.9 mph 32.2 mph N/A   Overcast
11:54 AM 72.0 °F 53.1 °F 51% 29.83 in 10.0 mi SSW 26.5 mph 34.5 mph N/A   Overcast
12:54 PM 73.9 °F 54.0 °F 50% 29.83 in 10.0 mi SW 19.6 mph 31.1 mph N/A   Overcast
1:54 PM 72.0 °F 54.0 °F 53% 29.82 in 10.0 mi SSW 23.0 mph 28.8 mph N/A   Overcast
2:54 PM 75.0 °F 54.0 °F 48% 29.80 in 10.0 mi SSW 21.9 mph 29.9 mph N/A   Overcast
3:54 PM 73.0 °F 54.0 °F 51% 29.77 in 10.0 mi South 18.4 mph - N/A   Overcast
4:54 PM 75.0 °F 54.0 °F 48% 29.73 in 10.0 mi South 17.3 mph 27.6 mph N/A   Overcast
5:54 PM 75.0 °F 53.1 °F 46% 29.73 in 10.0 mi South 23.0 mph 34.5 mph N/A   Overcast
6:54 PM 73.9 °F 54.0 °F 50% 29.70 in 10.0 mi SSW 16.1 mph - N/A   Overcast
7:54 PM 72.0 °F 54.0 °F 53% 29.68 in 10.0 mi SSW 13.8 mph - N/A   Overcast
8:54 PM 71.1 °F 54.0 °F 55% 29.69 in 10.0 mi WSW 11.5 mph - N/A   Overcast
9:54 PM 66.9 °F 54.0 °F 63% 29.67 in 10.0 mi SSW 5.8 mph - N/A   Overcast
10:54 PM 66.9 °F 54.0 °F 63% 29.64 in 10.0 mi SSE 8.1 mph - N/A   Overcast
11:54 PM 71.1 °F 52.0 °F 51% 29.62 in 10.0 mi South 20.7 mph 28.8 mph N/A   Overcast